Home   Weather   Ribeirão Prêto   Past weeks

Flag for Brazil Past Weather in Ribeirão Prêto, São Paulo, Brazil — Yesterday and Last 2 Weeks

Now
72 °F

Broken clouds.


Feels Like: 69 °F
Forecast: 69 / 80 °F
Wind: 6 mph from Northwest

Location: Leite Lopes / Ribeir

Current Time: Dec 4, 2016 at 10:19:36 am

Latest Report: Dec 4, 2016 at 9:00 am


Visibility: N/A

Pressure: 29.83 "Hg (27.99 "Hg at 549m altitude)

Humidity: 88%

Dew Point: 68 °F

Location of Ribeirão PrêtoLocation

Past Weather in Ribeirão Prêto — Graph

°F

Ribeirão Prêto Temperature Yesterday

Maximum temperature yesterday: 90 °F (at 2:00 pm)
Minimum temperature yesterday: 70 °F (at 8:00 pm)
Average temperature yesterday: 78 °F

High & Low Weather Summary for the Past Weeks

 TemperatureHumidityPressure
High93 °F (Nov 24, 4:00 pm)100% (Nov 25, 8:00 pm)30.07 "Hg (Nov 25, 8:00 pm)
Low55 °F (Nov 20, 4:00 am)24% (Nov 20, 6:00 pm)29.77 "Hg (Dec 4, 6:00 am)
Average77 °F68%29.94 "Hg
* Reported Nov 19 9:00 am — Dec 4 9:00 am, Ribeirão Prêto, Weather by CustomWeather, © 2016

Note: Actual official high and low records may vary slightly from our data, if they occured in-between our weather recording intervals... More about our weather records

Advertising

Ribeirão Prêto Weather History for the Previous 24 Hours

Scroll right to see more
 ConditionsComfort  
Time TempWeatherWind HumidityBarometerVisibility
9:00 am
Sun, Dec 4
72 °FBroken clouds.6 mph88%29.83 "HgN/A
8:00 am70 °FPassing clouds.3 mph94%29.80 "HgN/A
7:00 am68 °FPassing clouds.No wind100%29.80 "HgN/A
6:00 am68 °FClear.No wind100%29.77 "Hg10 mi
5:00 am70 °FClear.2 mph94%29.80 "Hg10 mi
1:00 am70 °FOvercast.6 mph94%29.86 "HgN/A
12:00 am70 °FClear.5 mph94%29.89 "Hg10 mi
11:00 pm
Sat, Dec 3
70 °FClear.3 mph94%29.92 "Hg10 mi
10:00 pm70 °FLight rain. Mostly cloudy.2 mph100%29.89 "HgN/A
9:00 pm70 °FLight rain. Mostly cloudy.3 mph94%29.92 "Hg5 mi
8:00 pm70 °FRain. Passing clouds.12 mph100%29.92 "Hg2 mi
7:00 pm72 °FLight rain. Mostly cloudy.No wind94%29.89 "Hg6 mi
6:00 pm75 °FLight rain. Mostly cloudy.12 mph69%29.86 "Hg5 mi
5:00 pm84 °FLight rain. Broken clouds.9 mph58%29.80 "HgN/A
4:00 pm86 °FScattered clouds.9 mph52%29.83 "HgN/A
3:00 pm88 °FScattered clouds.13 mph49%29.83 "HgN/A
2:00 pm90 °FBroken clouds.13 mph46%29.83 "HgN/A
1:00 pm88 °FBroken clouds.13 mph52%29.89 "HgN/A
12:00 pm86 °FBroken clouds.8 mph59%29.92 "HgN/A
11:00 am84 °FPartly sunny.9 mph62%29.92 "HgN/A
10:00 am82 °FScattered clouds.5 mph70%29.95 "HgN/A
Weather by CustomWeather, © 2016

See weather overviewHow to use our weather pages